Wind_Speed
16 16 15 14 13 13 14 17 18 20 22 22 22 21 20 19 18 17 16 14 13 13 12 11 10 9 8 7 6 5 5 4 3 3 3 2 2 1 1 1 2 3 3
15 14 14 13 12 12 13 15 18 20 22 22 22 21 21 20 19 17 16 15 14 14 13 12 11 10 9 8 7 6 5 5 4 3 3 2 2 2 2 2 2 3 4
14 13 12 11 9 11 13 13 16 20 21 21 22 22 21 20 19 18 17 16 15 15 14 13 12 10 9 8 8 7 6 5 4 3 2 2 2 2 2 3 3 4 4
13 11 11 10 9 10 12 13 17 19 20 20 21 22 22 20 19 19 18 17 16 16 16 14 13 11 10 9 8 8 7 6 5 4 3 3 2 2 3 4 4 5 5
11 10 9 8 7 8 11 14 17 19 20 20 20 22 22 21 20 20 19 17 17 17 16 15 14 13 11 10 9 8 7 6 5 5 4 4 4 4 4 5 5 6 6
9 8 7 5 5 6 9 12 15 17 19 20 21 22 22 21 20 19 18 18 17 17 16 15 14 13 12 10 9 8 7 7 6 6 5 5 5 6 6 6 6 7 7
9 7 5 4 4 5 8 11 13 16 18 20 20 21 21 21 20 19 19 18 18 17 16 15 14 13 12 11 10 9 8 8 8 8 7 7 7 8 8 8 8 8 9
8 6 4 3 4 6 9 11 13 16 19 21 21 21 20 20 20 19 19 18 18 17 17 16 15 14 13 12 11 10 9 9 9 9 9 9 9 9 9 10 10 11 11
7 5 3 2 4 6 9 11 13 15 18 20 21 21 21 20 19 19 19 19 18 18 17 17 16 15 14 13 12 11 11 11 11 11 10 11 11 11 12 12 13 13 14
7 6 4 2 3 5 7 10 12 14 15 18 19 20 20 19 19 19 19 19 19 19 18 18 17 16 15 14 13 12 12 12 13 13 13 13 14 14 15 15 16 16 17
8 7 5 3 3 4 7 10 11 12 13 15 17 18 19 19 19 19 18 18 19 19 18 18 17 17 16 15 15 15 15 15 15 15 16 17 17 18 18 19 19 19 20
9 8 6 5 5 5 6 8 10 10 12 13 15 17 18 18 18 18 18 18 18 19 19 18 18 18 18 17 17 18 18 18 18 19 19 20 20 21 22 22 22 23 23
10 8 7 6 7 7 8 9 10 11 12 13 14 15 16 17 17 18 18 17 18 18 19 18 18 19 20 20 21 21 21 22 22 22 23 24 24 25 25 25 26 26 27
11 9 9 8 8 9 9 10 11 11 11 12 14 14 15 16 17 17 18 18 19 19 19 20 20 21 22 23 23 23 24 24 25 26 26 27 27 28 28 29 29 29 30
13 12 11 11 10 10 11 12 12 13 13 13 14 15 16 16 17 17 18 19 20 20 20 21 22 23 24 24 25 25 26 27 28 29 30 30 30 31 31 31 32 32 32
14 14 13 13 13 12 12 13 15 15 15 15 16 16 17 17 17 18 18 19 21 22 23 24 25 26 27 27 27 28 29 30 31 32 32 33 33 34 35 35 35 35 35
16 16 16 16 16 16 16 16 16 17 18 18 18 18 18 19 19 20 21 21 23 24 25 26 27 28 29 30 30 31 31 32 33 34 35 35 36 36 36 37 37 38 38
17 18 19 19 18 18 17 18 18 19 20 20 20 21 21 21 22 22 23 23 24 25 27 28 29 30 31 32 33 33 33 34 34 35 36 37 38 38 38 39 39 39 39
18 19 20 20 19 19 20 20 20 20 21 22 22 23 24 24 24 25 26 27 27 28 28 29 30 31 32 33 34 34 35 35 36 36 37 38 39 40 40 40 40 40 41
21 20 21 21 21 21 22 22 22 23 23 24 25 26 26 26 26 27 28 29 30 30 30 31 32 32 33 34 35 35 36 37 38 39 40 40 41 41 42 43 43 43 43
22 22 22 22 22 22 22 23 24 24 25 27 27 27 27 27 28 29 29 30 31 32 32 32 33 33 33 34 35 36 37 38 39 41 42 43 43 44 45 45 45 46 46
22 23 23 24 24 24 24 24 24 25 27 28 28 28 28 28 29 30 30 31 32 32 32 33 34 35 36 36 38 39 39 40 41 42 43 45 46 46 47 48 48 48 49
24 24 24 25 26 25 25 25 26 26 27 28 28 29 30 30 31 32 33 33 34 34 34 35 36 37 38 39 39 40 41 43 44 45 46 46 47 48 49 50 51 51 51
25 26 27 27 27 26 25 25 26 27 27 27 28 30 31 32 33 34 34 35 35 36 37 37 38 39 40 41 41 42 44 44 45 46 47 49 50 50 51 52 53 53 53
24 25 26 27 27 25 24 24 25 26 26 27 29 30 31 32 33 34 34 36 35 36 37 38 40 41 41 42 44 44 45 46 47 47 49 50 51 52 52 53 54 54 54
22 23 23 24 25 25 24 24 25 26 27 28 30 31 32 33 33 34 34 35 37 37 37 38 39 41 42 43 45 46 46 47 48 49 50 51 52 52 53 53 53 54 55
Wind_Direction
310 307 300 291 270 252 239 229 220 212 210 208 209 211 214 218 218 221 222 225 225 221 221 222 223 225 226 226 225 219 212 209 203 202 200 201 210 222 249 265 272 278 285
309 307 302 294 269 247 233 230 220 209 207 206 207 208 212 214 214 217 220 219 218 217 217 219 220 223 222 219 217 212 206 200 198 194 187 191 203 225 254 282 286 286 288
307 305 302 298 270 241 227 227 219 210 207 204 207 208 209 209 212 215 216 215 214 213 213 213 216 217 213 210 203 199 195 198 201 200 202 212 228 238 261 279 286 291 290
306 302 297 293 270 239 224 220 212 209 204 200 204 205 204 208 212 210 209 209 211 211 210 211 214 213 209 206 201 200 201 205 208 214 224 232 247 263 274 280 282 289 295
305 298 295 285 267 237 216 213 207 205 200 197 199 201 201 205 204 203 204 207 210 209 209 210 212 209 205 204 204 204 208 214 219 226 238 250 267 279 283 286 286 289 293
310 304 301 276 258 226 200 196 193 192 193 193 195 197 197 200 201 200 201 204 207 206 205 207 206 205 204 206 207 209 215 224 231 239 250 259 270 280 283 287 290 292 294
330 323 306 260 236 194 177 179 183 185 186 187 190 194 196 198 200 199 200 202 203 203 203 204 205 205 206 209 213 217 224 231 240 248 258 266 274 281 284 287 289 292 293
330 336 327 249 209 188 180 178 181 183 183 186 189 191 194 197 197 198 199 202 202 202 202 205 205 208 211 215 220 223 230 239 248 254 262 269 274 279 282 285 286 287 289
322 328 330 276 200 182 173 176 177 181 185 188 192 192 194 196 196 199 201 204 205 205 205 207 207 211 215 220 226 231 238 248 255 259 263 267 272 275 278 281 284 286 286
307 312 313 276 206 192 180 178 182 185 187 193 195 195 196 198 202 205 208 210 209 209 210 210 212 216 221 227 235 241 246 253 258 261 264 269 272 275 278 281 283 284 285
297 297 293 261 222 194 187 188 188 188 189 192 194 197 200 202 207 211 211 212 213 213 213 215 218 224 231 238 243 249 253 256 260 264 268 270 274 276 278 280 282 283 283
286 284 275 259 223 208 199 196 194 197 196 197 197 200 202 205 209 211 214 217 219 220 221 223 227 233 238 244 250 255 258 261 264 267 270 272 275 277 278 279 281 282 282
276 271 262 247 228 221 212 207 206 207 205 203 202 203 206 210 213 216 220 223 225 227 226 230 236 242 246 252 256 258 262 263 266 269 272 274 276 278 279 280 281 282 282
267 265 257 245 233 228 223 219 216 213 210 208 208 210 214 217 220 223 227 231 232 233 235 239 243 248 254 257 259 262 264 266 269 271 274 276 277 279 281 283 283 283 283
259 256 255 250 242 235 231 228 225 222 218 215 215 216 219 224 226 229 234 237 238 239 242 246 250 253 257 261 263 265 266 268 270 272 275 277 278 281 282 283 284 284 283
255 252 250 249 248 243 237 233 230 227 224 224 225 225 226 228 229 232 237 240 242 244 247 252 255 258 261 263 265 267 268 270 272 274 276 277 279 280 281 282 282 282 282
254 250 247 248 247 246 244 240 234 231 230 230 231 233 233 234 234 238 242 245 247 249 253 256 259 262 265 266 267 269 271 272 274 275 277 278 278 279 281 282 282 282 282
252 249 246 247 248 247 245 242 239 237 236 236 237 239 238 240 241 244 248 250 253 255 257 260 262 264 267 269 270 270 271 273 275 276 277 278 279 279 280 280 282 283 282
251 250 245 243 248 249 245 242 241 241 242 242 242 242 244 244 245 248 250 253 255 258 260 263 265 266 268 270 271 271 271 273 275 277 278 279 279 278 280 281 282 283 282
251 252 247 244 247 249 247 245 245 244 244 246 245 246 248 249 250 251 254 256 257 259 262 264 265 266 268 270 271 272 273 273 274 276 277 279 280 280 280 281 281 282 283
250 249 247 246 246 247 248 248 249 249 249 248 248 248 251 253 253 255 257 260 262 264 266 266 267 268 270 271 274 275 276 276 276 278 278 278 278 280 281 281 281 282 281
249 248 248 248 248 248 248 249 249 251 253 253 252 253 255 257 259 260 262 265 266 268 269 269 270 271 272 273 275 276 276 277 278 279 279 279 279 280 281 281 281 281 281
246 247 250 249 248 248 249 250 250 252 255 256 257 258 259 261 262 263 265 267 268 269 269 269 271 273 273 274 275 276 277 278 279 279 279 279 281 282 282 282 281 282 282
245 247 248 248 248 248 249 249 250 254 257 260 262 263 263 264 266 268 267 268 268 268 269 271 272 274 276 276 277 278 278 279 280 280 280 281 281 281 281 282 282 282 282
247 248 247 245 246 250 253 254 254 258 262 264 265 268 270 272 272 271 270 270 268 271 272 273 272 273 275 278 279 279 280 280 280 281 281 282 282 282 282 282 282 281 282
247 248 249 249 248 251 255 257 260 263 265 267 269 271 273 275 276 275 276 274 273 275 275 276 276 277 278 278 279 280 280 280 281 281 281 282 283 283 283 282 281 281 281
Height
5827 5825 5823 5821 5820 5820 5821 5824 5828 5832 5836 5840 5844 5848 5851 5855 5858 5860 5863 5865 5867 5869 5871 5873 5874 5876 5877 5878 5879 5880 5881 5882 5883 5884 5884 5885 5885 5885 5885 5885 5886 5886 5885
5824 5821 5819 5817 5816 5816 5818 5821 5824 5828 5832 5836 5841 5844 5848 5852 5855 5858 5860 5863 5865 5867 5869 5871 5873 5874 5876 5877 5878 5879 5880 5881 5882 5883 5884 5884 5885 5885 5885 5885 5885 5885 5884
5821 5819 5816 5815 5813 5813 5815 5818 5820 5824 5828 5833 5837 5841 5845 5849 5852 5855 5858 5861 5863 5865 5868 5869 5871 5873 5874 5876 5877 5878 5880 5881 5882 5882 5883 5884 5884 5884 5884 5884 5884 5884 5883
5818 5817 5814 5812 5811 5812 5813 5815 5818 5821 5825 5829 5834 5838 5842 5846 5850 5853 5856 5858 5861 5863 5866 5867 5869 5871 5873 5875 5876 5877 5879 5880 5881 5881 5882 5883 5883 5883 5883 5883 5883 5883 5882
5816 5814 5812 5811 5810 5810 5811 5812 5815 5819 5823 5827 5831 5836 5840 5844 5847 5850 5853 5856 5859 5861 5864 5866 5868 5870 5872 5873 5875 5876 5878 5879 5880 5880 5881 5882 5882 5882 5882 5882 5882 5881 5881
5814 5813 5811 5810 5810 5810 5810 5811 5814 5817 5821 5825 5829 5834 5838 5842 5845 5848 5851 5854 5857 5860 5862 5864 5867 5869 5870 5872 5874 5875 5876 5877 5878 5879 5880 5880 5880 5881 5881 5881 5880 5880 5879
5814 5812 5811 5810 5810 5811 5811 5812 5814 5817 5821 5824 5829 5833 5837 5840 5843 5847 5850 5853 5855 5858 5860 5863 5865 5867 5869 5871 5872 5874 5875 5876 5877 5878 5878 5878 5878 5879 5879 5879 5878 5878 5877
5816 5813 5812 5811 5811 5812 5812 5814 5815 5817 5821 5825 5829 5832 5836 5839 5842 5845 5848 5851 5854 5856 5859 5861 5863 5866 5868 5869 5871 5872 5873 5874 5875 5875 5876 5876 5876 5876 5876 5876 5876 5875 5875
5816 5814 5813 5812 5812 5813 5814 5815 5817 5819 5822 5825 5828 5831 5834 5838 5841 5844 5847 5850 5852 5855 5857 5859 5862 5864 5866 5868 5869 5870 5871 5872 5873 5873 5873 5873 5873 5873 5873 5873 5873 5873 5871
5816 5815 5814 5813 5813 5814 5815 5816 5818 5820 5822 5824 5827 5830 5834 5837 5840 5843 5846 5848 5851 5853 5856 5858 5860 5862 5864 5866 5867 5868 5869 5870 5870 5870 5871 5871 5870 5870 5870 5869 5869 5868 5868
5816 5815 5814 5814 5814 5814 5815 5817 5818 5820 5822 5824 5827 5830 5833 5836 5839 5842 5844 5847 5849 5851 5853 5855 5858 5860 5861 5863 5864 5865 5866 5866 5867 5867 5867 5867 5867 5866 5865 5865 5864 5863 5863
5814 5814 5814 5814 5814 5815 5816 5817 5818 5820 5822 5824 5826 5829 5832 5835 5838 5840 5842 5845 5847 5849 5851 5853 5855 5857 5858 5860 5861 5861 5862 5862 5863 5863 5862 5862 5862 5861 5861 5860 5859 5858 5857
5813 5813 5813 5813 5814 5815 5815 5816 5818 5819 5821 5823 5825 5828 5830 5833 5836 5838 5840 5842 5844 5846 5848 5850 5852 5853 5854 5855 5856 5857 5857 5857 5857 5857 5857 5857 5856 5856 5855 5854 5853 5852 5850
5810 5811 5812 5812 5813 5814 5815 5816 5817 5818 5820 5822 5824 5826 5828 5831 5833 5835 5837 5839 5841 5843 5845 5846 5848 5849 5850 5850 5851 5851 5851 5851 5851 5851 5851 5850 5850 5849 5848 5847 5846 5845 5844
5808 5809 5810 5810 5811 5812 5813 5814 5816 5817 5819 5820 5822 5824 5826 5828 5830 5832 5834 5836 5837 5839 5841 5842 5843 5844 5845 5845 5845 5845 5845 5845 5845 5844 5844 5843 5843 5842 5841 5839 5838 5837 5835
5805 5805 5806 5807 5808 5809 5810 5812 5813 5815 5816 5818 5820 5822 5823 5825 5827 5829 5830 5832 5833 5834 5836 5837 5838 5838 5839 5839 5839 5839 5838 5838 5837 5837 5836 5835 5834 5833 5832 5830 5829 5827 5826
5801 5802 5803 5804 5804 5805 5807 5808 5809 5811 5813 5815 5816 5818 5820 5822 5823 5825 5826 5827 5828 5830 5831 5831 5832 5832 5832 5832 5832 5832 5831 5830 5829 5828 5827 5826 5825 5824 5822 5821 5819 5818 5816
5796 5797 5798 5800 5800 5801 5802 5804 5805 5807 5809 5811 5812 5814 5815 5817 5818 5820 5821 5822 5823 5824 5824 5825 5825 5825 5825 5824 5824 5823 5823 5822 5821 5820 5818 5817 5815 5814 5812 5811 5809 5807 5805
5791 5792 5794 5795 5796 5797 5798 5799 5801 5803 5805 5806 5808 5809 5811 5812 5813 5814 5814 5815 5816 5817 5817 5817 5817 5817 5816 5816 5815 5814 5814 5813 5812 5810 5809 5807 5805 5803 5802 5800 5799 5797 5795
5786 5787 5789 5790 5791 5791 5792 5794 5796 5798 5799 5801 5802 5803 5804 5805 5806 5807 5807 5808 5809 5809 5809 5809 5808 5808 5807 5806 5805 5804 5803 5802 5801 5799 5798 5796 5794 5792 5790 5789 5787 5786 5783
5780 5781 5783 5784 5785 5786 5787 5789 5790 5792 5793 5794 5795 5796 5797 5798 5798 5799 5800 5800 5800 5801 5800 5800 5799 5799 5798 5797 5796 5794 5794 5792 5790 5788 5786 5784 5783 5781 5779 5777 5775 5773 5770
5773 5774 5776 5778 5779 5780 5781 5782 5784 5785 5786 5787 5788 5789 5790 5790 5790 5791 5791 5791 5791 5791 5791 5791 5790 5789 5788 5787 5785 5784 5783 5781 5779 5777 5775 5773 5771 5768 5766 5764 5762 5759 5757
5766 5768 5769 5771 5772 5774 5775 5776 5777 5778 5779 5780 5781 5781 5782 5781 5781 5782 5782 5781 5781 5781 5781 5780 5780 5779 5777 5776 5774 5773 5771 5769 5767 5765 5763 5760 5758 5755 5753 5750 5748 5745 5742
5759 5761 5762 5764 5766 5767 5767 5769 5770 5771 5772 5773 5774 5773 5773 5773 5773 5772 5772 5771 5771 5771 5770 5769 5769 5768 5766 5764 5763 5761 5759 5757 5754 5752 5750 5747 5744 5741 5739 5736 5733 5729 5727
5752 5753 5755 5756 5759 5760 5761 5763 5763 5764 5765 5765 5766 5765 5765 5765 5764 5763 5762 5762 5761 5760 5759 5758 5757 5756 5755 5753 5750 5748 5746 5744 5741 5738 5736 5733 5730 5727 5724 5720 5717 5713 5710
5745 5747 5748 5749 5752 5754 5755 5756 5757 5757 5758 5758 5758 5757 5757 5756 5754 5754 5753 5751 5750 5749 5748 5747 5745 5743 5741 5739 5737 5735 5732 5729 5727 5724 5721 5717 5714 5711 5708 5704 5701 5697 5694